Santa Barbara, CA

6:21 AM PDT on June 18, 2018 (GMT -0700)
Santa Barbara Municipal

Weather History for KSBA - August, 2007

Change the Weather History Date:

Thursday, August 16, 2007

  Actual Average Record
Temperature  
Mean Temperature 67 °F 66 °F  
Max Temperature 73 °F 74 °F 84 °F (1962)
Min Temperature 60 °F 58 °F 50 °F (1986)
Degree Days  
Heating Degree Days 0 1  
Month to date heating degree days 4 16  
Since 1 June heating degree days 133  
Since 1 July heating degree days 15 43  
Cooling Degree Days 2 2  
Month to date cooling degree days 21 32  
Year to date cooling degree days 76 104  
Since 1 June cooling degree days 90  
Growing Degree Days 16 (Base 50)    
Moisture  
Dew Point 58 °F    
Average Humidity 71    
Maximum Humidity 84    
Minimum Humidity 57    
Precipitation  
Precipitation 0.00 in 0.00 in 0.00 in (2018)
Month to date precipitation 0.00 0.05  
Year to date precipitation 5.73 12.13  
Since 1 July precipitation T  
Sea Level Pressure  
Sea Level Pressure 29.78 in    
Wind  
Wind Speed 4 mph (SE)    
Max Wind Speed 8 mph    
Max Gust Speed 10 mph    
Visibility 9 miles    
Events      
T = Trace of Precipitation, MM = Missing Value Source: NWS Daily Summary

Daily Weather History Graph

Daily Weather History Graph

Search for Another Location

Airport or City:

Astronomy

Aug. 16, 2007 Rise Set
Actual Time 6:20 AM PDT 7:45 PM PDT
Civil Twilight 5:54 AM PDT 8:12 PM PDT
Nautical Twilight 5:22 AM PDT 8:44 PM PDT
Astronomical Twilight 4:49 AM PDT 9:17 PM PDT
Moon 9:54 AM PDT (8/16) 9:38 PM PDT (8/16)
Length of Visible Light 14h 18m
Length of Day
13h 25m
Waxing Crescent, 14% of the Moon is Illuminated
Aug 16
Waxing Crescent
Aug 20
First Quarter
Aug 28
Full
Sep 3
Last Quarter
Sep 11
New

Hourly Weather History & Observations

Time (PDT) Temp. Dew Point Humidity Pressure Visibility Wind Dir Wind Speed Gust Speed Precip Events Conditions
12:53 AM 64.0 °F 57.0 °F 78% 29.78 in 10.0 mi Calm Calm - N/A   Clear
1:53 AM 66.0 °F 57.0 °F 73% 29.78 in 10.0 mi ENE 5.8 mph - N/A   Scattered Clouds
2:53 AM 64.9 °F 55.9 °F 73% 29.78 in 10.0 mi Calm Calm - N/A   Mostly Cloudy
3:53 AM 64.9 °F 55.9 °F 73% 29.77 in 9.0 mi East 5.8 mph - N/A   Overcast
4:53 AM 63.0 °F 55.9 °F 78% 29.78 in 10.0 mi Calm Calm - N/A   Overcast
5:53 AM 62.1 °F 55.9 °F 80% 29.79 in 6.0 mi WNW 3.5 mph - N/A   Haze
6:53 AM 62.1 °F 57.9 °F 86% 29.81 in 7.0 mi Calm Calm - N/A   Mostly Cloudy
7:53 AM 64.0 °F 57.0 °F 78% 29.81 in 8.0 mi Calm Calm - N/A   Clear
8:53 AM 66.0 °F 59.0 °F 78% 29.82 in 8.0 mi SW 3.5 mph - N/A   Clear
9:53 AM 66.2 °F 60.8 °F 83% 29.82 in 9.0 mi West 4.6 mph - N/A   Overcast
10:53 AM 69.8 °F 59.0 °F 68% 29.83 in 9.0 mi Variable 3.5 mph - N/A   Overcast
11:53 AM 69.8 °F 57.2 °F 64% 29.83 in 10.0 mi WSW 4.6 mph - N/A   Overcast
12:53 PM 71.6 °F 55.4 °F 57% 29.83 in 10.0 mi SSE 6.9 mph - N/A   Overcast
1:53 PM 69.8 °F 57.2 °F 64% 29.83 in 10.0 mi SSE 4.6 mph - N/A   Overcast
2:53 PM 70.0 °F 59.0 °F 68% 29.81 in 10.0 mi SSE 5.8 mph - N/A   Overcast
3:53 PM 69.1 °F 59.0 °F 70% 29.78 in 10.0 mi SSE 4.6 mph - N/A   Overcast
4:53 PM 70.0 °F 59.0 °F 68% 29.77 in 10.0 mi SSE 5.8 mph - N/A   Clear
5:53 PM 69.1 °F 59.0 °F 70% 29.74 in 10.0 mi SSE 4.6 mph - N/A   Smoke
6:53 PM 66.9 °F 59.0 °F 76% 29.73 in 10.0 mi SSE 4.6 mph - N/A   Smoke
7:53 PM 64.9 °F 59.0 °F 81% 29.73 in 10.0 mi Calm Calm - N/A   Smoke
8:53 PM 64.9 °F 59.0 °F 81% 29.73 in 10.0 mi Calm Calm - N/A   Smoke
9:30 PM 64.4 °F 59.0 °F 83% 29.74 in 6.0 mi Calm Calm - N/A   Smoke
9:53 PM 64.0 °F 59.0 °F 84% 29.74 in 6.0 mi Calm Calm - N/A   Smoke
10:53 PM 66.0 °F 60.1 °F 81% 29.74 in 7.0 mi ENE 4.6 mph - N/A   Smoke
11:00 PM 66.2 °F 59.0 °F 78% 29.74 in 9.0 mi East 6.9 mph - N/A   Overcast
11:53 PM 68.0 °F 55.9 °F 65% 29.75 in 10.0 mi East 5.8 mph - N/A   Overcast